Probability
3 3 3 3 3 3 3 3 3 1 0 1 2 6 8 8 4 2 2 2 3 3 3 3 3 3 3 3 4 5 6 4 3 2 3 3 3 3
3 3 3 3 3 3 3 3 3 2 1 1 2 5 6 5 3 1 1 2 3 3 3 3 2 2 2 2 3 3 3 2 1 1 2 3 2 2
3 3 3 3 3 3 3 3 3 3 3 2 3 4 4 4 3 1 1 3 4 4 3 2 1 1 1 1 1 1 1 0 0 1 1 1 1 1
3 3 3 3 3 3 3 3 3 3 3 3 3 4 4 3 3 2 2 3 5 4 3 2 1 0 0 0 0 0 0 0 0 0 0 0 0 0
3 3 3 3 3 3 3 3 3 3 3 3 3 3 3 3 3 3 3 3 4 4 3 3 1 0 0 0 0 0 0 0 0 0 0 0 0 0
3 3 3 3 3 3 3 3 3 3 3 3 3 3 3 3 3 3 4 4 4 3 3 3 2 1 0 0 0 0 0 0 0 0 0 0 0 0
3 3 3 3 3 3 2 2 2 2 3 3 3 3 3 3 3 3 4 4 4 3 3 4 4 2 1 1 0 0 0 0 0 0 0 0 0 0
2 2 3 3 3 2 1 1 1 1 1 2 2 2 3 3 3 3 3 4 3 3 4 5 5 4 2 1 0 0 0 0 0 0 0 0 0 0
1 2 2 2 3 3 2 1 1 1 1 1 1 1 1 2 3 3 3 3 3 3 3 4 5 4 2 1 0 0 0 0 0 0 0 0 0 0
1 2 3 3 3 3 3 2 2 2 1 0 0 0 0 1 2 2 3 3 3 3 3 3 4 3 2 0 0 0 0 0 0 0 0 0 0 0
2 3 3 3 2 2 2 3 3 3 2 1 1 1 0 0 1 1 1 3 3 3 3 4 4 4 2 0 0 0 0 0 0 0 0 0 0 0
3 3 3 1 1 1 1 2 3 3 3 2 2 2 1 1 1 1 1 2 3 3 4 5 6 5 3 1 1 0 0 0 0 0 0 0 0 0
3 3 2 1 0 0 1 2 2 2 2 2 3 3 3 2 2 2 1 1 2 3 4 5 5 4 3 2 2 1 0 0 0 0 0 0 0 0
3 3 2 1 0 0 0 1 1 1 1 1 1 2 3 3 3 3 2 1 2 3 3 4 4 3 3 3 3 2 1 0 0 0 0 0 0 0
2 1 1 0 0 0 0 0 0 0 0 0 0 1 1 2 3 3 3 3 3 3 3 4 3 3 3 3 3 2 1 0 0 0 0 0 0 0
1 1 1 1 1 0 1 1 0 0 0 0 0 0 0 2 3 3 4 4 4 3 4 5 4 3 3 3 2 2 1 0 0 0 0 0 0 0
2 2 2 2 2 2 2 2 1 1 1 1 0 0 1 2 3 3 3 4 3 3 4 6 6 4 3 3 3 3 2 1 0 0 0 0 0 0
1 1 1 1 2 3 3 3 3 2 2 2 2 2 1 1 3 3 3 3 3 3 4 6 7 5 4 3 3 3 2 1 0 0 0 0 0 0
0 0 0 1 2 2 2 3 3 3 3 3 3 3 2 2 3 3 3 3 3 3 4 5 6 5 4 3 3 2 2 1 0 0 0 0 0 0
1 0 0 0 1 1 1 2 3 3 3 3 3 3 3 3 3 3 3 3 3 3 4 4 4 4 4 3 2 1 1 1 0 0 0 0 0 0
1 0 0 0 0 0 1 2 3 3 3 3 3 3 3 3 3 3 3 3 3 3 3 4 4 4 4 3 2 1 0 0 0 0 0 0 0 0
1 1 1 1 1 1 1 2 3 3 3 3 3 3 3 3 3 3 3 3 3 3 3 3 3 4 4 4 2 1 0 0 0 0 0 0 0 0
1 2 2 2 2 2 2 1 2 3 3 3 3 3 3 3 3 3 3 3 3 3 3 3 3 4 4 4 2 1 0 0 0 0 0 0 0 0
Wind_Speed
5 5 4 4 4 4 4 3 4 5 6 5 2 1 2 2 4 4 4 6 9 11 12 13 14 15 16 18 19 20 20 19 19 20 20 20 21 21
4 5 5 4 4 4 4 4 4 4 6 5 4 3 2 2 4 3 3 6 9 11 12 13 14 14 15 16 16 18 19 19 19 19 19 19 19 19
6 6 6 5 4 4 4 4 4 4 5 5 5 4 2 3 2 3 3 4 5 11 13 13 13 14 14 15 15 16 17 19 19 20 20 20 19 19
6 6 6 6 6 5 4 5 5 5 5 6 6 6 5 4 4 4 4 4 4 9 12 13 13 14 14 14 15 16 16 18 18 19 19 19 20 19
6 6 6 6 6 5 5 5 5 6 5 5 5 5 5 4 4 4 5 4 4 5 10 11 12 13 13 13 14 15 16 17 17 18 18 19 19 19
6 6 6 7 7 6 6 6 6 6 6 5 5 5 5 6 4 4 4 4 4 4 5 7 9 12 12 12 13 14 15 16 16 17 17 18 18 18
6 6 8 9 10 8 7 5 5 4 4 5 5 5 5 5 4 4 4 4 4 4 4 5 5 6 7 9 11 13 14 15 16 16 17 17 17 17
7 7 8 10 12 14 15 12 9 7 6 5 5 6 5 5 4 4 4 3 3 3 4 5 5 6 6 6 9 12 13 13 14 15 16 16 16 16
7 7 9 11 8 6 9 14 14 15 13 8 8 8 7 6 5 6 5 5 4 3 3 4 4 5 3 4 11 12 12 12 12 13 14 14 15 15
9 9 9 9 10 8 7 6 7 8 11 11 10 10 10 7 5 5 5 6 6 5 4 4 3 3 2 2 7 10 10 11 11 11 13 13 13 14
10 10 10 9 10 10 7 7 7 7 10 14 14 14 14 12 7 3 5 5 6 5 4 4 3 2 2 2 3 6 8 9 10 11 11 12 13 12
7 8 11 12 11 9 7 7 7 7 7 8 7 10 11 12 13 9 7 7 6 5 4 4 3 3 2 2 2 3 4 6 9 10 12 13 14 9
7 6 4 6 9 10 9 7 8 6 5 6 7 7 7 8 9 9 9 9 8 7 3 4 4 4 3 3 2 3 4 4 4 6 10 14 14 10
7 7 3 2 5 7 8 9 10 7 6 7 8 8 7 7 8 9 10 10 10 9 6 4 3 4 4 4 3 3 3 4 4 4 5 9 9 9
8 10 8 7 7 8 13 15 11 8 8 9 9 8 7 7 7 6 7 8 9 11 10 8 7 5 5 4 5 5 4 3 4 5 6 7 6 7
9 10 13 15 13 12 11 10 9 9 9 9 8 7 6 6 6 6 6 6 7 7 9 9 9 9 7 5 5 6 5 6 6 6 6 5 5 6
3 6 7 8 8 8 8 9 8 9 10 9 8 8 7 7 6 6 6 6 7 7 6 6 7 7 7 6 6 7 6 5 6 7 7 6 5 6
4 8 9 9 9 8 8 7 7 8 8 8 8 8 8 7 7 6 6 6 7 7 6 6 6 4 3 2 4 7 7 6 7 7 6 6 6 5
6 9 10 10 9 8 7 7 7 7 7 7 8 8 7 7 7 7 7 7 7 7 6 6 7 8 8 7 4 5 8 8 8 7 6 5 6 7
9 10 10 9 9 8 7 7 7 6 6 7 8 8 7 7 8 8 8 8 8 7 7 6 8 9 10 8 5 4 8 10 9 9 6 4 4 6
9 8 9 8 8 7 7 7 7 6 6 7 7 8 8 8 8 9 8 10 10 8 8 8 9 11 5 6 6 5 4 7 9 8 9 7 5 5
8 8 7 7 7 7 6 6 6 6 6 7 7 7 8 8 9 10 9 8 9 9 9 7 8 8 7 8 8 9 7 5 6 9 7 3 7 10
7 7 6 6 6 5 6 7 8 6 6 6 6 7 7 8 8 8 9 9 8 8 8 7 7 7 8 8 8 8 11 9 6 6 4 10 4 2
Wind_Direction
279 286 280 286 285 282 279 270 275 286 291 300 297 206 180 172 173 206 232 224 218 218 221 219 216 216 215 215 214 213 212 211 210 210 208 208 209 211
262 266 275 276 291 302 298 288 272 268 278 291 295 275 234 226 182 216 236 229 221 218 218 219 217 217 215 215 215 213 211 210 209 208 207 206 206 209
268 268 264 265 270 285 294 294 290 281 277 285 291 299 269 269 236 231 243 232 220 217 216 217 217 216 215 214 214 214 213 211 210 209 207 206 207 209
267 268 267 265 258 259 269 277 280 284 284 283 288 291 279 259 245 236 243 240 223 216 215 215 214 214 214 214 214 214 214 211 208 208 207 206 207 209
268 268 268 267 263 257 260 266 275 279 282 281 282 276 275 267 255 245 245 239 230 217 212 215 215 213 212 212 213 214 213 212 208 206 206 206 207 208
264 264 265 262 259 255 256 252 258 267 276 278 276 276 274 268 251 238 247 232 225 219 205 207 211 210 212 210 209 211 210 208 207 207 207 207 207 207
274 269 267 265 260 253 256 253 260 266 273 276 273 273 271 273 265 248 248 240 223 208 200 200 196 201 205 211 209 209 208 207 205 205 206 206 205 204
279 275 275 268 257 242 238 242 245 252 260 270 278 279 289 306 320 316 299 276 257 217 204 216 198 202 197 197 199 199 200 201 202 201 202 201 200 199
269 269 273 273 285 269 238 234 240 243 240 247 264 273 283 293 324 327 321 314 287 274 220 234 211 207 184 182 183 187 190 190 194 196 195 195 194 193
259 257 257 263 270 275 276 260 243 240 234 232 237 249 259 269 280 290 298 298 285 263 220 232 211 191 152 146 179 183 186 186 188 191 191 188 187 186
256 255 252 251 251 248 248 255 258 258 257 247 232 235 238 245 249 268 280 283 283 275 220 204 190 158 144 146 161 180 186 187 185 184 183 178 173 168
259 256 254 251 250 229 230 244 254 258 267 278 261 248 246 246 238 231 241 253 263 271 235 191 179 161 163 156 157 168 175 184 180 177 173 167 162 157
267 271 271 259 237 225 226 242 253 266 273 270 269 259 246 239 236 225 219 225 237 246 243 200 191 179 165 154 164 169 168 163 166 167 168 167 169 164
264 271 277 239 226 227 228 242 249 251 257 258 257 254 248 242 235 227 220 217 220 232 243 225 218 196 173 166 173 163 160 161 157 153 155 163 172 170
256 268 279 259 250 244 241 241 240 239 242 246 249 250 248 246 244 238 235 228 224 226 229 221 217 217 201 185 168 164 158 165 161 152 155 162 161 155
250 262 260 253 245 249 254 240 228 232 235 240 244 248 250 250 246 239 236 232 230 228 221 213 207 208 214 205 174 173 167 166 165 158 152 153 159 164
295 274 269 263 253 243 239 236 229 222 226 235 240 244 246 247 246 243 240 233 231 228 218 206 204 202 208 199 187 180 167 161 163 158 155 154 162 169
254 260 262 262 260 258 252 244 235 230 227 225 228 233 237 238 242 240 232 233 234 229 219 202 178 170 175 217 198 177 168 164 161 162 155 154 163 169
234 252 255 256 258 257 255 254 250 236 224 222 227 229 230 232 234 237 236 233 230 227 221 204 187 187 194 199 193 184 167 160 159 165 168 158 165 170
233 245 251 253 255 256 256 254 254 243 226 222 225 227 227 229 232 233 231 230 229 223 218 209 198 197 200 186 164 166 168 161 164 166 159 123 103 107
248 244 247 252 256 256 254 253 251 247 235 225 225 225 223 225 230 231 229 227 224 222 217 211 205 195 182 151 149 148 148 158 165 164 155 143 138 142
261 264 261 258 259 258 253 252 250 244 239 233 228 225 224 224 227 230 227 223 219 218 218 207 188 184 183 183 173 155 144 132 107 105 89 100 161 168
262 267 268 265 261 258 255 254 253 247 241 238 233 227 226 225 223 224 225 222 219 214 207 198 188 187 191 186 170 156 151 148 142 127 67 16 39 107